Year,Month,Day,Hour,Minute,Value (Times are PST for temperature in C)
2015,07,12,00,00,14.90
2015,07,12,00,01,14.90
2015,07,12,00,02,14.90
2015,07,12,00,03,14.90
2015,07,12,00,04,14.90
2015,07,12,00,05,14.90
2015,07,12,00,06,14.90
2015,07,12,00,07,14.90
2015,07,12,00,08,14.90
2015,07,12,00,09,14.90
2015,07,12,00,10,14.90
2015,07,12,00,11,14.90
2015,07,12,00,12,14.90
2015,07,12,00,13,14.90
2015,07,12,00,14,14.90
2015,07,12,00,15,14.90
2015,07,12,00,16,14.90
2015,07,12,00,17,14.90
2015,07,12,00,18,14.90
2015,07,12,00,19,14.90
2015,07,12,00,20,14.90
2015,07,12,00,21,14.90
2015,07,12,00,22,14.90
2015,07,12,00,23,14.90
2015,07,12,00,24,14.90
2015,07,12,00,25,14.90
2015,07,12,00,26,14.90
2015,07,12,00,27,14.90
2015,07,12,00,28,14.90
2015,07,12,00,29,14.90
2015,07,12,00,30,14.90
2015,07,12,00,31,14.90
2015,07,12,00,32,14.90
2015,07,12,00,33,14.90
2015,07,12,00,34,14.90
2015,07,12,00,35,14.90
2015,07,12,00,36,14.90
2015,07,12,00,37,14.90
2015,07,12,00,38,14.90
2015,07,12,00,39,14.90
2015,07,12,00,40,14.90
2015,07,12,00,41,14.90
2015,07,12,00,42,14.90
2015,07,12,00,43,14.90
2015,07,12,00,44,14.90
2015,07,12,00,45,14.90
2015,07,12,00,46,14.90
2015,07,12,00,47,14.90
2015,07,12,00,48,14.90
2015,07,12,00,49,14.90
2015,07,12,00,50,14.90
2015,07,12,00,51,14.90
2015,07,12,00,52,14.90
2015,07,12,00,53,14.90
2015,07,12,00,54,14.90
2015,07,12,00,55,14.90
2015,07,12,00,56,14.90
2015,07,12,00,57,14.90
2015,07,12,00,58,14.90
2015,07,12,00,59,14.90
2015,07,12,01,00,14.90
2015,07,12,01,01,14.90
2015,07,12,01,02,14.90
2015,07,12,01,03,14.90
2015,07,12,01,04,14.90
2015,07,12,01,05,14.90
2015,07,12,01,06,14.90
2015,07,12,01,07,14.90
2015,07,12,01,08,14.90
2015,07,12,01,09,14.90
2015,07,12,01,10,14.90
2015,07,12,01,11,14.90
2015,07,12,01,12,14.90
2015,07,12,01,13,14.90
2015,07,12,01,14,14.90
2015,07,12,01,15,14.90
2015,07,12,01,16,14.90
2015,07,12,01,17,14.90
2015,07,12,01,18,14.90
2015,07,12,01,19,14.90
2015,07,12,01,20,14.90
2015,07,12,01,21,14.90
2015,07,12,01,22,14.90
2015,07,12,01,23,14.90
2015,07,12,01,24,14.90
2015,07,12,01,25,14.90
2015,07,12,01,26,14.90
2015,07,12,01,27,14.90
2015,07,12,01,28,14.90
2015,07,12,01,29,14.90
2015,07,12,01,30,14.90
2015,07,12,01,31,14.90
2015,07,12,01,32,14.90
2015,07,12,01,33,14.90
2015,07,12,01,34,14.90
2015,07,12,01,35,14.90
2015,07,12,01,36,14.90
2015,07,12,01,37,14.90
2015,07,12,01,38,15.00
2015,07,12,01,39,14.90
2015,07,12,01,40,14.90
2015,07,12,01,41,15.00
2015,07,12,01,42,14.90
2015,07,12,01,43,15.00
2015,07,12,01,44,15.00
2015,07,12,01,45,15.00
2015,07,12,01,46,15.00
2015,07,12,01,47,15.00
2015,07,12,01,48,15.00
2015,07,12,01,49,15.00
2015,07,12,01,50,14.90
2015,07,12,01,51,14.90
2015,07,12,01,52,14.90
2015,07,12,01,53,14.90
2015,07,12,01,54,14.90
2015,07,12,01,55,14.90
2015,07,12,01,56,14.90
2015,07,12,01,57,14.90
2015,07,12,01,58,14.90
2015,07,12,01,59,14.90
2015,07,12,02,00,14.90
2015,07,12,02,01,14.90
2015,07,12,02,02,14.90
2015,07,12,02,03,14.90
2015,07,12,02,04,14.90
2015,07,12,02,05,14.90
2015,07,12,02,06,14.90
2015,07,12,02,07,14.90
2015,07,12,02,08,14.90
2015,07,12,02,09,14.90
2015,07,12,02,10,14.90
2015,07,12,02,11,14.90
2015,07,12,02,12,14.90
2015,07,12,02,13,14.90
2015,07,12,02,14,14.90
2015,07,12,02,15,14.90
2015,07,12,02,16,14.90
2015,07,12,02,17,14.90
2015,07,12,02,18,14.90
2015,07,12,02,19,14.90
2015,07,12,02,20,14.90
2015,07,12,02,21,14.90
2015,07,12,02,22,14.90
2015,07,12,02,23,14.90
2015,07,12,02,24,14.90
2015,07,12,02,25,14.90
2015,07,12,02,26,14.90
2015,07,12,02,27,14.90
2015,07,12,02,28,14.90
2015,07,12,02,29,14.90
2015,07,12,02,30,14.90
2015,07,12,02,31,14.90
2015,07,12,02,32,14.90
2015,07,12,02,33,14.90
2015,07,12,02,34,14.90
2015,07,12,02,35,14.90
2015,07,12,02,36,14.90
2015,07,12,02,37,14.90
2015,07,12,02,38,14.90
2015,07,12,02,39,14.90
2015,07,12,02,40,14.90
2015,07,12,02,41,14.90
2015,07,12,02,42,14.90
2015,07,12,02,43,14.90
2015,07,12,02,44,14.90
2015,07,12,02,45,14.90
2015,07,12,02,46,14.90
2015,07,12,02,47,14.90
2015,07,12,02,48,14.90
2015,07,12,02,49,14.90
2015,07,12,02,50,14.90
2015,07,12,02,51,14.90
2015,07,12,02,52,14.90
2015,07,12,02,53,14.90
2015,07,12,02,54,14.90
2015,07,12,02,55,14.90
2015,07,12,02,56,14.90
2015,07,12,02,57,14.90
2015,07,12,02,58,15.00
2015,07,12,02,59,15.00
2015,07,12,03,00,14.90
2015,07,12,03,01,14.90
2015,07,12,03,02,14.90
2015,07,12,03,03,14.90
2015,07,12,03,04,14.90
2015,07,12,03,05,14.90
2015,07,12,03,06,14.90
2015,07,12,03,07,14.90
2015,07,12,03,08,14.90
2015,07,12,03,09,14.90
2015,07,12,03,10,14.90
2015,07,12,03,11,14.90
2015,07,12,03,12,14.90
2015,07,12,03,13,14.90
2015,07,12,03,14,14.90
2015,07,12,03,15,14.90
2015,07,12,03,16,14.90
2015,07,12,03,17,14.90
2015,07,12,03,18,14.90
2015,07,12,03,19,14.90
2015,07,12,03,20,14.90
2015,07,12,03,21,14.90
2015,07,12,03,22,14.90
2015,07,12,03,23,14.90
2015,07,12,03,24,14.90
2015,07,12,03,25,14.90
2015,07,12,03,26,14.90
2015,07,12,03,27,14.90
2015,07,12,03,28,14.90
2015,07,12,03,29,14.90
2015,07,12,03,30,14.90
2015,07,12,03,31,14.90
2015,07,12,03,32,14.90
2015,07,12,03,33,14.90
2015,07,12,03,34,14.90
2015,07,12,03,35,14.90
2015,07,12,03,36,14.90
2015,07,12,03,37,14.90
2015,07,12,03,38,14.90
2015,07,12,03,39,14.90
2015,07,12,03,40,14.90
2015,07,12,03,41,14.90
2015,07,12,03,42,14.90
2015,07,12,03,43,14.90
2015,07,12,03,44,14.90
2015,07,12,03,45,14.90
2015,07,12,03,46,14.90
2015,07,12,03,47,14.90
2015,07,12,03,48,14.90
2015,07,12,03,49,14.90
2015,07,12,03,50,14.90
2015,07,12,03,51,15.00
2015,07,12,03,52,15.00
2015,07,12,03,53,15.00
2015,07,12,03,54,15.00
2015,07,12,03,55,15.00
2015,07,12,03,56,15.00
2015,07,12,03,57,15.00
2015,07,12,03,58,15.00
2015,07,12,03,59,15.00
2015,07,12,04,00,15.00
2015,07,12,04,01,15.00
2015,07,12,04,02,15.00
2015,07,12,04,03,15.00
2015,07,12,04,04,15.00
2015,07,12,04,05,15.00
2015,07,12,04,06,14.90
2015,07,12,04,07,14.90
2015,07,12,04,08,14.90
2015,07,12,04,09,14.90
2015,07,12,04,10,14.90
2015,07,12,04,11,14.90
2015,07,12,04,12,14.90
2015,07,12,04,13,14.90
2015,07,12,04,14,14.90
2015,07,12,04,15,14.90
2015,07,12,04,16,14.90
2015,07,12,04,17,14.90
2015,07,12,04,18,14.90
2015,07,12,04,19,14.90
2015,07,12,04,20,14.90
2015,07,12,04,21,14.90
2015,07,12,04,22,14.90
2015,07,12,04,23,14.90
2015,07,12,04,24,14.90
2015,07,12,04,25,14.90
2015,07,12,04,26,14.90
2015,07,12,04,27,14.90
2015,07,12,04,28,14.90
2015,07,12,04,29,14.90
2015,07,12,04,30,14.90
2015,07,12,04,31,14.90
2015,07,12,04,32,14.90
2015,07,12,04,33,14.90
2015,07,12,04,34,14.90
2015,07,12,04,35,14.90
2015,07,12,04,36,14.90
2015,07,12,04,37,14.90
2015,07,12,04,38,14.90
2015,07,12,04,39,14.90
2015,07,12,04,40,14.90
2015,07,12,04,41,14.90
2015,07,12,04,42,14.90
2015,07,12,04,43,14.90
2015,07,12,04,44,14.90
2015,07,12,04,45,14.90
2015,07,12,04,46,14.90
2015,07,12,04,47,14.90
2015,07,12,04,48,14.90
2015,07,12,04,49,14.90
2015,07,12,04,50,14.90
2015,07,12,04,51,14.90
2015,07,12,04,52,14.90
2015,07,12,04,53,14.90
2015,07,12,04,54,14.90
2015,07,12,04,55,14.90
2015,07,12,04,56,14.90
2015,07,12,04,57,14.90
2015,07,12,04,58,14.90
2015,07,12,04,59,14.90
2015,07,12,05,00,14.90
2015,07,12,05,01,14.90
2015,07,12,05,02,14.90
2015,07,12,05,03,14.90
2015,07,12,05,04,14.90
2015,07,12,05,05,14.90
2015,07,12,05,06,14.90
2015,07,12,05,07,14.90
2015,07,12,05,08,14.90
2015,07,12,05,09,14.90
2015,07,12,05,10,14.90
2015,07,12,05,11,14.90
2015,07,12,05,12,14.80
2015,07,12,05,13,14.80
2015,07,12,05,14,14.80
2015,07,12,05,15,14.80
2015,07,12,05,16,14.80
2015,07,12,05,17,14.80
2015,07,12,05,18,14.80
2015,07,12,05,19,14.80
2015,07,12,05,20,14.80
2015,07,12,05,21,14.80
2015,07,12,05,22,14.80
2015,07,12,05,23,14.80
2015,07,12,05,24,14.80
2015,07,12,05,25,14.80
2015,07,12,05,26,14.80
2015,07,12,05,27,14.70
2015,07,12,05,28,14.70
2015,07,12,05,29,14.70
2015,07,12,05,30,14.70
2015,07,12,05,31,14.70
2015,07,12,05,32,14.70
2015,07,12,05,33,14.70
2015,07,12,05,34,14.70
2015,07,12,05,35,14.70
2015,07,12,05,36,14.70
2015,07,12,05,37,14.70
2015,07,12,05,38,14.70
2015,07,12,05,39,14.70
2015,07,12,05,40,14.70
2015,07,12,05,41,14.70
2015,07,12,05,42,14.70
2015,07,12,05,43,14.70
2015,07,12,05,44,14.80
2015,07,12,05,45,14.80
2015,07,12,05,46,14.80
2015,07,12,05,47,14.80
2015,07,12,05,48,14.80
2015,07,12,05,49,14.80
2015,07,12,05,50,14.80
2015,07,12,05,51,14.80
2015,07,12,05,52,14.80
2015,07,12,05,53,14.80
2015,07,12,05,54,14.80
2015,07,12,05,55,14.80
2015,07,12,05,56,14.80
2015,07,12,05,57,14.80
2015,07,12,05,58,14.80
2015,07,12,05,59,14.80
2015,07,12,06,00,14.80
2015,07,12,06,01,14.80
2015,07,12,06,02,14.80
2015,07,12,06,03,14.80
2015,07,12,06,04,14.80
2015,07,12,06,05,14.80
2015,07,12,06,06,14.80
2015,07,12,06,07,14.80
2015,07,12,06,08,14.80
2015,07,12,06,09,14.80
2015,07,12,06,10,14.80
2015,07,12,06,11,14.80
2015,07,12,06,12,14.80
2015,07,12,06,13,14.80
2015,07,12,06,14,14.80
2015,07,12,06,15,14.80
2015,07,12,06,16,14.80
2015,07,12,06,17,14.80
2015,07,12,06,18,14.80
2015,07,12,06,19,14.80
2015,07,12,06,20,14.80
2015,07,12,06,21,14.80
2015,07,12,06,22,14.80
2015,07,12,06,23,14.80
2015,07,12,06,24,14.80
2015,07,12,06,25,14.80
2015,07,12,06,26,14.80
2015,07,12,06,27,14.80
2015,07,12,06,28,14.80
2015,07,12,06,29,14.80
2015,07,12,06,30,14.80
2015,07,12,06,31,14.80
2015,07,12,06,32,14.80
2015,07,12,06,33,14.80
2015,07,12,06,34,14.80
2015,07,12,06,35,14.80
2015,07,12,06,36,14.80
2015,07,12,06,37,14.80
2015,07,12,06,38,14.90
2015,07,12,06,39,14.90
2015,07,12,06,40,14.90
2015,07,12,06,41,14.90
2015,07,12,06,42,14.90
2015,07,12,06,43,14.90
2015,07,12,06,44,14.90
2015,07,12,06,45,14.90
2015,07,12,06,46,14.90
2015,07,12,06,47,14.90
2015,07,12,06,48,14.90
2015,07,12,06,49,14.90
2015,07,12,06,50,14.90
2015,07,12,06,51,14.90
2015,07,12,06,52,14.90
2015,07,12,06,53,14.90
2015,07,12,06,54,14.90
2015,07,12,06,55,14.90
2015,07,12,06,56,14.90
2015,07,12,06,57,14.90
2015,07,12,06,58,14.90
2015,07,12,06,59,14.90
2015,07,12,07,00,14.90
2015,07,12,07,01,14.90
2015,07,12,07,02,14.90
2015,07,12,07,03,14.90
2015,07,12,07,04,14.90
2015,07,12,07,05,15.00
2015,07,12,07,06,15.00
2015,07,12,07,07,15.00
2015,07,12,07,08,15.00
2015,07,12,07,09,15.00
2015,07,12,07,10,15.00
2015,07,12,07,11,15.00
2015,07,12,07,12,15.00
2015,07,12,07,13,15.00
2015,07,12,07,14,15.00
2015,07,12,07,15,15.00
2015,07,12,07,16,15.00
2015,07,12,07,17,15.10
2015,07,12,07,18,15.10
2015,07,12,07,19,15.10
2015,07,12,07,20,15.10
2015,07,12,07,21,15.10
2015,07,12,07,22,15.10
2015,07,12,07,23,15.10
2015,07,12,07,24,15.10
2015,07,12,07,25,15.10
2015,07,12,07,26,15.10
2015,07,12,07,27,15.10
2015,07,12,07,28,15.20
2015,07,12,07,29,15.20
2015,07,12,07,30,15.20
2015,07,12,07,31,15.20
2015,07,12,07,32,15.20
2015,07,12,07,33,15.20
2015,07,12,07,34,15.20
2015,07,12,07,35,15.20
2015,07,12,07,36,15.20
2015,07,12,07,37,15.20
2015,07,12,07,38,15.20
2015,07,12,07,39,15.20
2015,07,12,07,40,15.20
2015,07,12,07,41,15.30
2015,07,12,07,42,15.30
2015,07,12,07,43,15.30
2015,07,12,07,44,15.20
2015,07,12,07,45,15.20
2015,07,12,07,46,15.30
2015,07,12,07,47,15.30
2015,07,12,07,48,15.30
2015,07,12,07,49,15.30
2015,07,12,07,50,15.30
2015,07,12,07,51,15.30
2015,07,12,07,52,15.30
2015,07,12,07,53,15.30
2015,07,12,07,54,15.30
2015,07,12,07,55,15.30
2015,07,12,07,56,15.30
2015,07,12,07,57,15.30
2015,07,12,07,58,15.30
2015,07,12,07,59,15.30
2015,07,12,08,00,15.30
2015,07,12,08,01,15.40
2015,07,12,08,02,15.40
2015,07,12,08,03,15.40
2015,07,12,08,04,15.40
2015,07,12,08,05,15.40
2015,07,12,08,06,15.40
2015,07,12,08,07,15.40
2015,07,12,08,08,15.50
2015,07,12,08,09,15.50
2015,07,12,08,10,15.50
2015,07,12,08,11,15.50
2015,07,12,08,12,15.50
2015,07,12,08,13,15.60
2015,07,12,08,14,15.60
2015,07,12,08,15,15.60
2015,07,12,08,16,15.70
2015,07,12,08,17,15.70
2015,07,12,08,18,15.60
2015,07,12,08,19,15.60
2015,07,12,08,20,15.60
2015,07,12,08,21,15.60
2015,07,12,08,22,15.60
2015,07,12,08,23,15.60
2015,07,12,08,24,15.70
2015,07,12,08,25,15.70
2015,07,12,08,26,15.70
2015,07,12,08,27,15.70
2015,07,12,08,28,15.70
2015,07,12,08,29,15.70
2015,07,12,08,30,15.70
2015,07,12,08,31,15.70
2015,07,12,08,32,15.70
2015,07,12,08,33,15.70
2015,07,12,08,34,15.70
2015,07,12,08,35,15.70
2015,07,12,08,36,15.70
2015,07,12,08,37,15.70
2015,07,12,08,38,15.70
2015,07,12,08,39,15.70
2015,07,12,08,40,15.70
2015,07,12,08,41,15.70
2015,07,12,08,42,15.80
2015,07,12,08,43,15.80
2015,07,12,08,44,15.80
2015,07,12,08,45,15.80
2015,07,12,08,46,15.80
2015,07,12,08,47,15.80
2015,07,12,08,48,15.90
2015,07,12,08,49,15.80
2015,07,12,08,50,15.90
2015,07,12,08,51,15.90
2015,07,12,08,52,15.90
2015,07,12,08,53,15.90
2015,07,12,08,54,15.90
2015,07,12,08,55,15.90
2015,07,12,08,56,15.90
2015,07,12,08,57,15.90
2015,07,12,08,58,15.90
2015,07,12,08,59,15.90
2015,07,12,09,00,15.90
2015,07,12,09,01,15.90
2015,07,12,09,02,15.90
2015,07,12,09,03,16.00
2015,07,12,09,04,16.00
2015,07,12,09,05,16.00
2015,07,12,09,06,16.00
2015,07,12,09,07,16.00
2015,07,12,09,08,16.00
2015,07,12,09,09,16.00
2015,07,12,09,10,16.10
2015,07,12,09,11,16.10
2015,07,12,09,12,16.10
2015,07,12,09,13,16.10
2015,07,12,09,14,16.10
2015,07,12,09,15,16.10
2015,07,12,09,16,16.10
2015,07,12,09,17,16.10
2015,07,12,09,18,16.10
2015,07,12,09,19,16.10
2015,07,12,09,20,16.10
2015,07,12,09,21,16.10
2015,07,12,09,22,16.10
2015,07,12,09,23,16.00
2015,07,12,09,24,16.00
2015,07,12,09,25,16.00
2015,07,12,09,26,16.00
2015,07,12,09,27,16.00
2015,07,12,09,28,16.00
2015,07,12,09,29,16.00
2015,07,12,09,30,16.00
2015,07,12,09,31,16.00
2015,07,12,09,32,16.00
2015,07,12,09,33,15.90
2015,07,12,09,34,15.90
2015,07,12,09,35,15.90
2015,07,12,09,36,15.90
2015,07,12,09,37,16.00
2015,07,12,09,38,16.00
2015,07,12,09,39,16.00
2015,07,12,09,40,16.00
2015,07,12,09,41,16.00
2015,07,12,09,42,15.90
2015,07,12,09,43,15.90
2015,07,12,09,44,15.90
2015,07,12,09,45,15.90
2015,07,12,09,46,15.90
2015,07,12,09,47,15.90
2015,07,12,09,48,15.90
2015,07,12,09,49,15.90
2015,07,12,09,50,15.90
2015,07,12,09,51,15.90
2015,07,12,09,52,15.90
2015,07,12,09,53,15.90
2015,07,12,09,54,15.90
2015,07,12,09,55,15.90
2015,07,12,09,56,15.90
2015,07,12,09,57,15.90
2015,07,12,09,58,16.00
2015,07,12,09,59,16.00
2015,07,12,10,00,16.00
2015,07,12,10,01,16.00
2015,07,12,10,02,16.00
2015,07,12,10,03,16.00
2015,07,12,10,04,16.00
2015,07,12,10,05,16.00
2015,07,12,10,06,16.00
2015,07,12,10,07,16.10
2015,07,12,10,08,16.10
2015,07,12,10,09,16.10
2015,07,12,10,10,16.10
2015,07,12,10,11,16.10
2015,07,12,10,12,16.10
2015,07,12,10,13,16.00
2015,07,12,10,14,16.00
2015,07,12,10,15,16.10
2015,07,12,10,16,16.10
2015,07,12,10,17,16.10
2015,07,12,10,18,16.10
2015,07,12,10,19,16.10
2015,07,12,10,20,16.10
2015,07,12,10,21,16.10
2015,07,12,10,22,16.20
2015,07,12,10,23,16.20
2015,07,12,10,24,16.10
2015,07,12,10,25,16.10
2015,07,12,10,26,16.10
2015,07,12,10,27,16.10
2015,07,12,10,28,16.10
2015,07,12,10,29,16.10
2015,07,12,10,30,16.00
2015,07,12,10,31,16.00
2015,07,12,10,32,16.00
2015,07,12,10,33,16.00
2015,07,12,10,34,16.00
2015,07,12,10,35,16.00
2015,07,12,10,36,16.00
2015,07,12,10,37,16.00
2015,07,12,10,38,15.90
2015,07,12,10,39,15.90
2015,07,12,10,40,15.90
2015,07,12,10,41,15.90
2015,07,12,10,42,15.90
2015,07,12,10,43,15.90
2015,07,12,10,44,15.90
2015,07,12,10,45,15.90
2015,07,12,10,46,15.80
2015,07,12,10,47,15.80
2015,07,12,10,48,15.80
2015,07,12,10,49,15.80
2015,07,12,10,50,15.80
2015,07,12,10,51,15.80
2015,07,12,10,52,15.80
2015,07,12,10,53,15.80
2015,07,12,10,54,15.80
2015,07,12,10,55,15.80
2015,07,12,10,56,15.80
2015,07,12,10,57,15.80
2015,07,12,10,58,15.80
2015,07,12,10,59,15.80
2015,07,12,11,00,15.80
2015,07,12,11,01,15.70
2015,07,12,11,02,15.70
2015,07,12,11,03,15.70
2015,07,12,11,04,15.70
2015,07,12,11,05,15.70
2015,07,12,11,06,15.70
2015,07,12,11,07,15.70
2015,07,12,11,08,15.70
2015,07,12,11,09,15.70
2015,07,12,11,10,15.70
2015,07,12,11,11,15.70
2015,07,12,11,12,15.80
2015,07,12,11,13,15.80
2015,07,12,11,14,15.80
2015,07,12,11,15,15.80
2015,07,12,11,16,15.80
2015,07,12,11,17,15.80
2015,07,12,11,18,15.80
2015,07,12,11,19,15.80
2015,07,12,11,20,15.80
2015,07,12,11,21,15.90
2015,07,12,11,22,15.90
2015,07,12,11,23,15.90
2015,07,12,11,24,15.90
2015,07,12,11,25,15.90
2015,07,12,11,26,15.90
2015,07,12,11,27,15.90
2015,07,12,11,28,15.90
2015,07,12,11,29,15.90
2015,07,12,11,30,15.90
2015,07,12,11,31,15.90
2015,07,12,11,32,16.00
2015,07,12,11,33,16.10
2015,07,12,11,34,16.10
2015,07,12,11,35,16.10
2015,07,12,11,36,16.20
2015,07,12,11,37,16.20
2015,07,12,11,38,16.20
2015,07,12,11,39,16.20
2015,07,12,11,40,16.20
2015,07,12,11,41,16.20
2015,07,12,11,42,16.20
2015,07,12,11,43,16.20
2015,07,12,11,44,16.20
2015,07,12,11,45,16.20
2015,07,12,11,46,16.30
2015,07,12,11,47,16.30
2015,07,12,11,48,16.30
2015,07,12,11,49,16.30
2015,07,12,11,50,16.30
2015,07,12,11,51,16.30
2015,07,12,11,52,16.30
2015,07,12,11,53,16.30
2015,07,12,11,54,16.40
2015,07,12,11,55,16.40
2015,07,12,11,56,16.40
2015,07,12,11,57,16.40
2015,07,12,11,58,16.40
2015,07,12,11,59,16.40
2015,07,12,12,00,16.50
2015,07,12,12,01,16.50
2015,07,12,12,02,16.60
2015,07,12,12,03,16.60
2015,07,12,12,04,16.60
2015,07,12,12,05,16.60
2015,07,12,12,06,16.60
2015,07,12,12,07,16.60
2015,07,12,12,08,16.60
2015,07,12,12,09,16.60
2015,07,12,12,10,16.60
2015,07,12,12,11,16.50
2015,07,12,12,12,16.50
2015,07,12,12,13,16.50
2015,07,12,12,14,16.60
2015,07,12,12,15,16.60
2015,07,12,12,16,16.60
2015,07,12,12,17,16.60
2015,07,12,12,18,16.60
2015,07,12,12,19,16.60
2015,07,12,12,20,16.60
2015,07,12,12,21,16.60
2015,07,12,12,22,16.60
2015,07,12,12,23,16.60
2015,07,12,12,24,16.60
2015,07,12,12,25,16.50
2015,07,12,12,26,16.50
2015,07,12,12,27,16.50
2015,07,12,12,28,16.50
2015,07,12,12,29,16.50
2015,07,12,12,30,16.50
2015,07,12,12,31,16.50
2015,07,12,12,32,16.50
2015,07,12,12,33,16.50
2015,07,12,12,34,16.50
2015,07,12,12,35,16.50
2015,07,12,12,36,16.50
2015,07,12,12,37,16.50
2015,07,12,12,38,16.50
2015,07,12,12,39,16.50
2015,07,12,12,40,16.50
2015,07,12,12,41,16.60
2015,07,12,12,42,16.60
2015,07,12,12,43,16.60
2015,07,12,12,44,16.60
2015,07,12,12,45,16.60
2015,07,12,12,46,16.70
2015,07,12,12,47,16.70
2015,07,12,12,48,16.70
2015,07,12,12,49,16.70
2015,07,12,12,50,16.70
2015,07,12,12,51,16.70
2015,07,12,12,52,16.70
2015,07,12,12,53,16.80
2015,07,12,12,54,16.80
2015,07,12,12,55,16.80
2015,07,12,12,56,16.90
2015,07,12,12,57,16.90
2015,07,12,12,58,16.90
2015,07,12,12,59,17.00
2015,07,12,13,00,17.00
2015,07,12,13,01,17.10
2015,07,12,13,02,17.10
2015,07,12,13,03,17.10
2015,07,12,13,04,17.10
2015,07,12,13,05,17.10
2015,07,12,13,06,17.10
2015,07,12,13,07,17.10
2015,07,12,13,08,17.10
2015,07,12,13,09,17.20
2015,07,12,13,10,17.20
2015,07,12,13,11,17.20
2015,07,12,13,12,17.10
2015,07,12,13,13,17.10
2015,07,12,13,14,17.10
2015,07,12,13,15,17.00
2015,07,12,13,16,17.00
2015,07,12,13,17,17.00
2015,07,12,13,18,17.10
2015,07,12,13,19,17.10
2015,07,12,13,20,17.10
2015,07,12,13,21,17.10
2015,07,12,13,22,17.10
2015,07,12,13,23,17.10
2015,07,12,13,24,17.20
2015,07,12,13,25,17.20
2015,07,12,13,26,17.20
2015,07,12,13,27,17.30
2015,07,12,13,28,17.30
2015,07,12,13,29,17.20
2015,07,12,13,30,17.20
2015,07,12,13,31,17.20
2015,07,12,13,32,17.20
2015,07,12,13,33,17.20
2015,07,12,13,34,17.20
2015,07,12,13,35,17.20
2015,07,12,13,36,17.10
2015,07,12,13,37,17.10
2015,07,12,13,38,17.10
2015,07,12,13,39,17.10
2015,07,12,13,40,17.00
2015,07,12,13,41,16.90
2015,07,12,13,42,16.90
2015,07,12,13,43,16.80
2015,07,12,13,44,16.80
2015,07,12,13,45,16.70
2015,07,12,13,46,16.70
2015,07,12,13,47,16.70
2015,07,12,13,48,16.60
2015,07,12,13,49,16.60
2015,07,12,13,50,16.60
2015,07,12,13,51,16.60
2015,07,12,13,52,16.60
2015,07,12,13,53,16.60
2015,07,12,13,54,16.60
2015,07,12,13,55,16.60
2015,07,12,13,56,16.50
2015,07,12,13,57,16.50
2015,07,12,13,58,16.40
2015,07,12,13,59,16.40
2015,07,12,14,00,16.40
2015,07,12,14,01,16.40
2015,07,12,14,02,16.40
2015,07,12,14,03,16.30
2015,07,12,14,04,16.30
2015,07,12,14,05,16.30
2015,07,12,14,06,16.30
2015,07,12,14,07,16.40
2015,07,12,14,08,16.40
2015,07,12,14,09,16.40
2015,07,12,14,10,16.50
2015,07,12,14,11,16.60
2015,07,12,14,12,16.60
2015,07,12,14,13,16.70
2015,07,12,14,14,16.70
2015,07,12,14,15,16.70
2015,07,12,14,16,16.70
2015,07,12,14,17,16.70
2015,07,12,14,18,16.70
2015,07,12,14,19,16.70
2015,07,12,14,20,16.70
2015,07,12,14,21,16.70
2015,07,12,14,22,16.80
2015,07,12,14,23,16.80
2015,07,12,14,24,16.80
2015,07,12,14,25,16.80
2015,07,12,14,26,16.70
2015,07,12,14,27,16.70
2015,07,12,14,28,16.80
2015,07,12,14,29,16.80
2015,07,12,14,30,16.80
2015,07,12,14,31,16.90
2015,07,12,14,32,16.90
2015,07,12,14,33,16.90
2015,07,12,14,34,16.90
2015,07,12,14,35,16.80
2015,07,12,14,36,16.80
2015,07,12,14,37,16.80
2015,07,12,14,38,16.80
2015,07,12,14,39,16.80
2015,07,12,14,40,16.80
2015,07,12,14,41,16.90
2015,07,12,14,42,16.90
2015,07,12,14,43,16.90
2015,07,12,14,44,17.00
2015,07,12,14,45,17.00
2015,07,12,14,46,17.10
2015,07,12,14,47,17.20
2015,07,12,14,48,17.20
2015,07,12,14,49,17.30
2015,07,12,14,50,17.30
2015,07,12,14,51,17.30
2015,07,12,14,52,17.30
2015,07,12,14,53,17.40
2015,07,12,14,54,17.40
2015,07,12,14,55,17.30
2015,07,12,14,56,17.30
2015,07,12,14,57,17.30
2015,07,12,14,58,17.30
2015,07,12,14,59,17.30
2015,07,12,15,00,17.30
2015,07,12,15,01,17.40
2015,07,12,15,02,17.40
2015,07,12,15,03,17.50
2015,07,12,15,04,17.50
2015,07,12,15,05,17.50
2015,07,12,15,06,17.50
2015,07,12,15,07,17.50
2015,07,12,15,08,17.50
2015,07,12,15,09,17.50
2015,07,12,15,10,17.50
2015,07,12,15,11,17.50
2015,07,12,15,12,17.50
2015,07,12,15,13,17.50
2015,07,12,15,14,17.40
2015,07,12,15,15,17.50
2015,07,12,15,16,17.50
2015,07,12,15,17,17.50
2015,07,12,15,18,17.50
2015,07,12,15,19,17.50
2015,07,12,15,20,17.60
2015,07,12,15,21,17.60
2015,07,12,15,22,17.60
2015,07,12,15,23,17.60
2015,07,12,15,24,17.60
2015,07,12,15,25,17.60
2015,07,12,15,26,17.60
2015,07,12,15,27,17.70
2015,07,12,15,28,17.70
2015,07,12,15,29,17.70
2015,07,12,15,30,17.70
2015,07,12,15,31,17.70
2015,07,12,15,32,17.70
2015,07,12,15,33,17.70
2015,07,12,15,34,17.70
2015,07,12,15,35,17.70
2015,07,12,15,36,17.70
2015,07,12,15,37,17.70
2015,07,12,15,38,17.80
2015,07,12,15,39,17.80
2015,07,12,15,40,17.80
2015,07,12,15,41,17.70
2015,07,12,15,42,17.70
2015,07,12,15,43,17.70
2015,07,12,15,44,17.70
2015,07,12,15,45,17.70
2015,07,12,15,46,17.80
2015,07,12,15,47,17.80
2015,07,12,15,48,17.80
2015,07,12,15,49,17.80
2015,07,12,15,50,17.80
2015,07,12,15,51,17.80
2015,07,12,15,52,17.80
2015,07,12,15,53,17.80
2015,07,12,15,54,17.80
2015,07,12,15,55,17.80
2015,07,12,15,56,17.70
2015,07,12,15,57,17.70
2015,07,12,15,58,17.70
2015,07,12,15,59,17.70
2015,07,12,16,00,17.80
2015,07,12,16,01,17.80
2015,07,12,16,02,17.80
2015,07,12,16,03,17.80
2015,07,12,16,04,17.90
2015,07,12,16,05,17.90
2015,07,12,16,06,17.90
2015,07,12,16,07,17.90
2015,07,12,16,08,17.90
2015,07,12,16,09,17.90
2015,07,12,16,10,18.00
2015,07,12,16,11,18.00
2015,07,12,16,12,18.10
2015,07,12,16,13,18.10
2015,07,12,16,14,18.10
2015,07,12,16,15,18.10
2015,07,12,16,16,18.20
2015,07,12,16,17,18.20
2015,07,12,16,18,18.10
2015,07,12,16,19,18.10
2015,07,12,16,20,18.00
2015,07,12,16,21,18.00
2015,07,12,16,22,18.00
2015,07,12,16,23,18.10
2015,07,12,16,24,18.10
2015,07,12,16,25,18.20
2015,07,12,16,26,18.30
2015,07,12,16,27,18.30
2015,07,12,16,28,18.20
2015,07,12,16,29,18.20
2015,07,12,16,30,18.10
2015,07,12,16,31,18.10
2015,07,12,16,32,18.00
2015,07,12,16,33,18.00
2015,07,12,16,34,18.00
2015,07,12,16,35,17.90
2015,07,12,16,36,17.90
2015,07,12,16,37,17.80
2015,07,12,16,38,17.80
2015,07,12,16,39,17.70
2015,07,12,16,40,17.70
2015,07,12,16,41,17.70
2015,07,12,16,42,17.70
2015,07,12,16,43,17.60
2015,07,12,16,44,17.60
2015,07,12,16,45,17.50
2015,07,12,16,46,17.40
2015,07,12,16,47,17.40
2015,07,12,16,48,17.30
2015,07,12,16,49,17.30
2015,07,12,16,50,17.20
2015,07,12,16,51,17.30
2015,07,12,16,52,17.30
2015,07,12,16,53,17.30
2015,07,12,16,54,17.30
2015,07,12,16,55,17.20
2015,07,12,16,56,17.20
2015,07,12,16,57,17.10
2015,07,12,16,58,17.10
2015,07,12,16,59,17.00
2015,07,12,17,00,17.00
2015,07,12,17,01,17.10
2015,07,12,17,02,17.10
2015,07,12,17,03,17.10
2015,07,12,17,04,17.10
2015,07,12,17,05,17.20
2015,07,12,17,06,17.20
2015,07,12,17,07,17.20
2015,07,12,17,08,17.20
2015,07,12,17,09,17.10
2015,07,12,17,10,17.10
2015,07,12,17,11,17.00
2015,07,12,17,12,17.00
2015,07,12,17,13,16.90
2015,07,12,17,14,16.90
2015,07,12,17,15,16.90
2015,07,12,17,16,16.80
2015,07,12,17,17,16.80
2015,07,12,17,18,16.80
2015,07,12,17,19,16.80